Time,TemperatureF,DewpointF,PressureIn,WindDirection,WindDirectionDegrees,WindSpeedMPH,WindSpeedGustMPH,Humidity,HourlyPrecipIn,Conditions,Clouds,dailyrainin,SoftwareType,DateUTC
2013-03-28 00:00:00,33.4,28.8,30.04,NW,323,0.0,3.0,83,0.00,,,0.00,meteohub,2013-03-28 04:00:00,
2013-03-28 00:05:00,33.3,28.9,30.03,NW,323,0.0,1.0,84,0.00,,,0.00,meteohub,2013-03-28 04:05:00,
2013-03-28 00:10:00,33.3,28.9,30.03,NW,323,0.0,1.0,84,0.00,,,0.00,meteohub,2013-03-28 04:10:00,
2013-03-28 00:15:00,33.3,28.9,30.04,NW,323,0.0,1.0,84,0.00,,,0.00,meteohub,2013-03-28 04:15:00,
2013-03-28 00:20:00,33.1,28.8,30.03,NW,323,0.0,1.0,84,0.00,,,0.00,meteohub,2013-03-28 04:20:00,
2013-03-28 00:25:00,33.1,28.8,30.03,NW,323,0.0,1.0,84,0.00,,,0.00,meteohub,2013-03-28 04:25:00,
2013-03-28 00:30:00,32.9,28.6,30.03,NW,323,0.0,1.0,84,0.00,,,0.00,meteohub,2013-03-28 04:30:00,
2013-03-28 00:35:00,32.9,28.9,30.03,NW,323,0.0,1.0,85,0.00,,,0.00,meteohub,2013-03-28 04:35:00,
2013-03-28 00:40:00,32.7,28.8,30.03,NW,323,0.0,1.0,85,0.00,,,0.00,meteohub,2013-03-28 04:40:00,
2013-03-28 00:45:00,32.7,28.8,30.03,NW,323,1.0,1.0,85,0.00,,,0.00,meteohub,2013-03-28 04:45:00,
2013-03-28 00:50:00,32.7,28.8,30.03,NW,323,0.0,1.0,85,0.00,,,0.00,meteohub,2013-03-28 04:50:00,
2013-03-28 00:55:00,32.7,28.8,30.03,NW,323,0.0,1.0,85,0.00,,,0.00,meteohub,2013-03-28 04:55:00,
2013-03-28 01:01:00,32.7,28.9,30.03,NW,323,0.0,1.0,86,0.00,,,0.00,meteohub,2013-03-28 05:01:00,
2013-03-28 01:06:00,32.7,28.8,30.03,NW,323,0.0,1.0,85,0.00,,,0.00,meteohub,2013-03-28 05:06:00,
2013-03-28 01:11:00,32.7,28.9,30.03,NW,323,0.0,1.0,86,0.00,,,0.00,meteohub,2013-03-28 05:11:00,
2013-03-28 01:16:00,32.7,28.9,30.03,NW,323,0.0,1.0,86,0.00,,,0.00,meteohub,2013-03-28 05:16:00,
2013-03-28 01:21:00,32.7,28.9,30.03,NW,324,0.0,0.0,86,0.00,,,0.00,meteohub,2013-03-28 05:21:00,
2013-03-28 01:26:00,32.7,28.9,30.03,NW,324,0.0,1.0,86,0.00,,,0.00,meteohub,2013-03-28 05:26:00,
2013-03-28 01:31:00,32.7,28.9,30.03,NW,326,0.0,2.0,86,0.00,,,0.00,meteohub,2013-03-28 05:31:00,
2013-03-28 01:36:00,32.7,28.9,30.03,NW,326,0.0,2.0,86,0.00,,,0.00,meteohub,2013-03-28 05:36:00,
2013-03-28 01:41:00,32.9,28.9,30.03,NNW,340,0.0,2.0,85,0.00,,,0.00,meteohub,2013-03-28 05:41:00,
2013-03-28 01:46:00,32.9,29.1,30.03,NNW,340,0.0,2.0,86,0.00,,,0.00,meteohub,2013-03-28 05:46:00,
2013-03-28 01:51:00,32.9,29.1,30.03,NNW,340,0.0,2.0,86,0.00,,,0.00,meteohub,2013-03-28 05:51:00,
2013-03-28 01:57:00,32.9,29.5,30.03,NNW,340,0.0,0.0,87,0.00,,,0.00,meteohub,2013-03-28 05:57:00,
2013-03-28 02:02:00,32.7,29.3,30.03,NNW,340,0.0,1.0,87,0.00,,,0.00,meteohub,2013-03-28 06:02:00,
2013-03-28 02:07:00,32.7,29.3,30.03,NNW,340,0.0,1.0,87,0.00,,,0.00,meteohub,2013-03-28 06:07:00,
2013-03-28 02:12:00,32.7,29.3,30.03,NNW,340,0.0,1.0,87,0.00,,,0.00,meteohub,2013-03-28 06:12:00,
2013-03-28 02:17:00,32.5,29.1,30.03,NNW,340,0.0,1.0,87,0.00,,,0.00,meteohub,2013-03-28 06:17:00,
2013-03-28 02:22:00,32.5,29.1,30.03,NNW,340,0.0,1.0,87,0.00,,,0.00,meteohub,2013-03-28 06:22:00,
2013-03-28 02:27:00,32.5,29.1,30.03,NNW,340,0.0,0.0,87,0.00,,,0.00,meteohub,2013-03-28 06:27:00,
2013-03-28 02:32:00,32.5,29.1,30.03,NNW,340,0.0,0.0,87,0.00,,,0.00,meteohub,2013-03-28 06:32:00,
2013-03-28 02:37:00,32.5,29.3,30.03,NNW,340,0.0,0.0,88,0.00,,,0.00,meteohub,2013-03-28 06:37:00,
2013-03-28 02:42:00,32.5,29.3,30.03,NNW,340,0.0,1.0,88,0.00,,,0.00,meteohub,2013-03-28 06:42:00,
2013-03-28 02:47:00,32.5,29.3,30.03,NNW,340,0.0,1.0,88,0.00,,,0.00,meteohub,2013-03-28 06:47:00,
2013-03-28 02:52:00,32.4,29.1,30.03,NNW,340,0.0,0.0,88,0.00,,,0.00,meteohub,2013-03-28 06:52:00,
2013-03-28 02:57:00,32.4,29.1,30.03,NNW,340,0.0,0.0,88,0.00,,,0.00,meteohub,2013-03-28 06:57:00,
2013-03-28 03:02:00,32.4,29.5,30.03,NNW,340,0.0,0.0,89,0.00,,,0.00,meteohub,2013-03-28 07:02:00,
2013-03-28 03:07:00,32.2,29.3,30.03,NNW,340,0.0,1.0,89,0.00,,,0.00,meteohub,2013-03-28 07:07:00,
2013-03-28 03:12:00,32.2,29.3,30.03,NNW,340,0.0,1.0,89,0.00,,,0.00,meteohub,2013-03-28 07:12:00,
2013-03-28 03:17:00,32.2,29.3,30.02,NNW,340,0.0,0.0,89,0.00,,,0.00,meteohub,2013-03-28 07:17:00,
2013-03-28 03:22:00,32.2,29.3,30.03,NNW,340,0.0,2.0,89,0.00,,,0.00,meteohub,2013-03-28 07:22:00,
2013-03-28 03:27:00,32.2,29.7,30.03,NNW,340,0.0,2.0,90,0.00,,,0.00,meteohub,2013-03-28 07:27:00,
2013-03-28 03:32:00,32.2,29.7,30.03,NE,37,0.0,2.0,90,0.00,,,0.00,meteohub,2013-03-28 07:32:00,
2013-03-28 03:37:00,32.4,29.5,30.03,NE,37,0.0,2.0,89,0.00,,,0.00,meteohub,2013-03-28 07:37:00,
2013-03-28 03:42:00,32.4,29.5,30.03,NNE,14,0.0,2.0,89,0.00,,,0.00,meteohub,2013-03-28 07:42:00,
2013-03-28 03:47:00,32.4,29.5,30.03,NNE,14,0.0,1.0,89,0.00,,,0.00,meteohub,2013-03-28 07:47:00,
2013-03-28 03:52:00,32.2,29.7,30.03,NNE,14,0.0,1.0,90,0.00,,,0.00,meteohub,2013-03-28 07:52:00,
2013-03-28 03:57:00,32.0,29.5,30.03,NNE,14,0.0,1.0,90,0.00,,,0.00,meteohub,2013-03-28 07:57:00,
2013-03-28 04:02:00,31.8,29.5,30.03,NNE,14,0.0,1.0,91,0.00,,,0.00,meteohub,2013-03-28 08:02:00,
2013-03-28 04:07:00,31.8,29.5,30.03,NNE,14,0.0,1.0,91,0.00,,,0.00,meteohub,2013-03-28 08:07:00,
2013-03-28 04:12:00,31.8,29.5,30.03,NNE,14,0.0,1.0,91,0.00,,,0.00,meteohub,2013-03-28 08:12:00,
2013-03-28 04:18:00,31.6,29.3,30.03,NNE,14,0.0,1.0,91,0.00,,,0.00,meteohub,2013-03-28 08:18:00,
2013-03-28 04:23:00,31.6,29.3,30.03,NNE,14,0.0,1.0,91,0.00,,,0.00,meteohub,2013-03-28 08:23:00,
2013-03-28 04:28:00,31.6,29.7,30.03,NNE,14,0.0,1.0,92,0.00,,,0.00,meteohub,2013-03-28 08:28:00,
2013-03-28 04:33:00,31.6,29.7,30.03,NNE,14,0.0,0.0,92,0.00,,,0.00,meteohub,2013-03-28 08:33:00,
2013-03-28 04:38:00,31.6,29.7,30.03,NNE,14,0.0,0.0,92,0.00,,,0.00,meteohub,2013-03-28 08:38:00,
2013-03-28 04:43:00,31.6,29.7,30.03,NNE,14,0.0,0.0,92,0.00,,,0.00,meteohub,2013-03-28 08:43:00,
2013-03-28 04:48:00,31.6,29.7,30.03,NNE,14,0.0,0.0,92,0.00,,,0.00,meteohub,2013-03-28 08:48:00,
2013-03-28 04:53:00,31.5,29.5,30.03,NNE,14,0.0,0.0,92,0.00,,,0.00,meteohub,2013-03-28 08:53:00,
2013-03-28 04:58:00,31.5,29.5,30.03,NNE,14,0.0,0.0,92,0.00,,,0.00,meteohub,2013-03-28 08:58:00,
2013-03-28 05:03:00,31.5,29.7,30.03,NNE,14,0.0,0.0,93,0.00,,,0.00,meteohub,2013-03-28 09:03:00,
2013-03-28 05:08:00,31.5,29.7,30.04,NNE,14,0.0,0.0,93,0.00,,,0.00,meteohub,2013-03-28 09:08:00,
2013-03-28 05:13:00,31.5,29.7,30.04,NNE,14,0.0,0.0,93,0.00,,,0.00,meteohub,2013-03-28 09:13:00,
2013-03-28 05:18:00,31.5,29.7,30.04,NNE,14,0.0,0.0,93,0.00,,,0.00,meteohub,2013-03-28 09:18:00,
2013-03-28 05:23:00,31.5,29.7,30.04,NNE,14,0.0,0.0,93,0.00,,,0.00,meteohub,2013-03-28 09:23:00,
2013-03-28 05:28:00,31.5,29.7,30.04,NNE,14,0.0,0.0,93,0.00,,,0.00,meteohub,2013-03-28 09:28:00,
2013-03-28 05:33:00,31.5,30.0,30.04,NNE,14,0.0,0.0,94,0.00,,,0.00,meteohub,2013-03-28 09:33:00,
2013-03-28 05:38:00,31.5,30.0,30.04,NNE,14,0.0,0.0,94,0.00,,,0.00,meteohub,2013-03-28 09:38:00,
2013-03-28 05:43:00,31.5,30.0,30.04,NNE,14,0.0,0.0,94,0.00,,,0.00,meteohub,2013-03-28 09:43:00,
2013-03-28 05:48:00,31.5,30.0,30.04,NNE,14,0.0,0.0,94,0.00,,,0.00,meteohub,2013-03-28 09:48:00,
2013-03-28 05:53:00,31.5,30.0,30.04,NNE,14,0.0,0.0,94,0.00,,,0.00,meteohub,2013-03-28 09:53:00,
2013-03-28 05:58:00,31.5,30.0,30.04,NNE,14,0.0,0.0,94,0.00,,,0.00,meteohub,2013-03-28 09:58:00,
2013-03-28 06:03:00,31.5,30.2,30.04,NNE,14,0.0,1.0,95,0.00,,,0.00,meteohub,2013-03-28 10:03:00,
2013-03-28 06:09:00,31.3,30.0,30.04,NNE,14,0.0,1.0,95,0.00,,,0.00,meteohub,2013-03-28 10:09:00,
2013-03-28 06:14:00,31.3,30.0,30.04,NNE,14,0.0,0.0,95,0.00,,,0.00,meteohub,2013-03-28 10:14:00,
2013-03-28 06:19:00,31.3,30.0,30.05,NNE,14,0.0,0.0,95,0.00,,,0.00,meteohub,2013-03-28 10:19:00,
2013-03-28 06:24:00,31.3,30.0,30.05,NNE,14,0.0,0.0,95,0.00,,,0.00,meteohub,2013-03-28 10:24:00,
2013-03-28 06:29:00,31.3,30.0,30.05,NNE,14,0.0,0.0,95,0.00,,,0.00,meteohub,2013-03-28 10:29:00,
2013-03-28 06:34:00,31.3,30.0,30.05,NNE,14,0.0,0.0,95,0.00,,,0.00,meteohub,2013-03-28 10:34:00,
2013-03-28 06:39:00,31.3,30.0,30.05,SW,218,0.0,0.0,95,0.00,,,0.00,meteohub,2013-03-28 10:39:00,
2013-03-28 06:44:00,31.3,30.0,30.06,SW,218,0.0,0.0,95,0.00,,,0.00,meteohub,2013-03-28 10:44:00,
2013-03-28 06:49:00,31.3,30.2,30.06,SW,218,0.0,0.0,96,0.00,,,0.00,meteohub,2013-03-28 10:49:00,
2013-03-28 06:54:00,31.3,30.2,30.06,SW,218,0.0,0.0,96,0.00,,,0.00,meteohub,2013-03-28 10:54:00,
2013-03-28 06:59:00,31.3,30.2,30.06,SW,218,0.0,0.0,96,0.00,,,0.00,meteohub,2013-03-28 10:59:00,
2013-03-28 07:04:00,31.3,30.2,30.06,SW,218,0.0,0.0,96,0.00,,,0.00,meteohub,2013-03-28 11:04:00,
2013-03-28 07:09:00,31.5,30.4,30.06,SW,218,0.0,0.0,96,0.00,,,0.00,meteohub,2013-03-28 11:09:00,
2013-03-28 07:14:00,31.5,30.4,30.07,SW,218,0.0,0.0,96,0.00,,,0.00,meteohub,2013-03-28 11:14:00,
2013-03-28 07:19:00,31.5,30.4,30.06,SW,218,0.0,0.0,96,0.00,,,0.00,meteohub,2013-03-28 11:19:00,
2013-03-28 07:24:00,31.5,30.4,30.07,SW,218,0.0,0.0,96,0.00,,,0.00,meteohub,2013-03-28 11:24:00,
2013-03-28 07:29:00,31.5,30.4,30.07,SW,218,0.0,0.0,96,0.00,,,0.00,meteohub,2013-03-28 11:29:00,
2013-03-28 07:34:00,31.5,30.4,30.07,SW,218,0.0,0.0,96,0.00,,,0.00,meteohub,2013-03-28 11:34:00,
2013-03-28 07:39:00,31.6,30.6,30.07,SW,218,0.0,0.0,96,0.00,,,0.00,meteohub,2013-03-28 11:39:00,
2013-03-28 07:44:00,31.6,30.6,30.08,SW,218,0.0,1.0,96,0.00,,,0.00,meteohub,2013-03-28 11:44:00,
2013-03-28 07:49:00,31.6,30.6,30.08,SW,218,0.0,1.0,96,0.00,,,0.00,meteohub,2013-03-28 11:49:00,
2013-03-28 07:54:00,31.6,30.6,30.08,SW,218,0.0,1.0,96,0.00,,,0.00,meteohub,2013-03-28 11:54:00,
2013-03-28 07:59:00,31.6,30.6,30.08,SW,218,0.0,1.0,96,0.00,,,0.00,meteohub,2013-03-28 11:59:00,
2013-03-28 08:04:00,31.6,30.6,30.08,SW,218,0.0,1.0,96,0.00,,,0.00,meteohub,2013-03-28 12:04:00,
2013-03-28 08:09:00,31.6,30.6,30.08,SW,218,0.0,1.0,96,0.00,,,0.00,meteohub,2013-03-28 12:09:00,
2013-03-28 08:14:00,31.8,30.7,30.08,NNW,344,0.0,1.0,96,0.00,,,0.00,meteohub,2013-03-28 12:14:00,
2013-03-28 08:19:00,31.8,30.7,30.08,North,5,0.0,3.0,96,0.00,,,0.00,meteohub,2013-03-28 12:19:00,
2013-03-28 08:24:00,31.8,30.7,30.08,North,5,0.0,3.0,96,0.00,,,0.00,meteohub,2013-03-28 12:24:00,
2013-03-28 08:29:00,32.2,31.1,30.09,North,5,1.0,3.0,96,0.00,,,0.00,meteohub,2013-03-28 12:29:00,
2013-03-28 08:34:00,32.2,31.1,30.09,North,5,0.0,2.0,96,0.00,,,0.00,meteohub,2013-03-28 12:34:00,
2013-03-28 08:39:00,32.2,31.1,30.09,North,5,0.0,2.0,96,0.00,,,0.00,meteohub,2013-03-28 12:39:00,
2013-03-28 08:44:00,32.2,31.1,30.09,North,5,0.0,2.0,96,0.00,,,0.00,meteohub,2013-03-28 12:44:00,
2013-03-28 08:49:00,32.4,31.3,30.09,North,5,0.0,1.0,96,0.00,,,0.00,meteohub,2013-03-28 12:49:00,
2013-03-28 08:54:00,32.4,31.3,30.09,North,5,0.0,1.0,96,0.00,,,0.00,meteohub,2013-03-28 12:54:00,
2013-03-28 08:59:00,32.4,31.3,30.09,North,5,0.0,1.0,96,0.00,,,0.00,meteohub,2013-03-28 12:59:00,
2013-03-28 09:04:00,32.4,31.3,30.09,North,5,0.0,1.0,96,0.00,,,0.00,meteohub,2013-03-28 13:04:00,
2013-03-28 09:09:00,32.4,31.3,30.09,North,5,0.0,1.0,96,0.00,,,0.00,meteohub,2013-03-28 13:09:00,
2013-03-28 09:14:00,32.2,31.1,30.09,North,5,0.0,1.0,96,0.00,,,0.00,meteohub,2013-03-28 13:14:00,
2013-03-28 09:19:00,32.4,31.3,30.09,North,5,0.0,1.0,96,0.00,,,0.00,meteohub,2013-03-28 13:19:00,
2013-03-28 09:24:00,32.5,31.5,30.09,North,5,0.0,1.0,96,0.00,,,0.00,meteohub,2013-03-28 13:24:00,
2013-03-28 09:29:00,32.7,31.6,30.09,North,5,0.0,1.0,96,0.00,,,0.00,meteohub,2013-03-28 13:29:00,
2013-03-28 09:34:00,32.7,31.6,30.09,North,5,0.0,1.0,96,0.00,,,0.00,meteohub,2013-03-28 13:34:00,
2013-03-28 09:39:00,33.1,32.0,30.09,North,5,0.0,1.0,96,0.00,,,0.00,meteohub,2013-03-28 13:39:00,
2013-03-28 09:44:00,33.3,32.2,30.09,WSW,257,3.0,3.0,96,0.01,,,0.01,meteohub,2013-03-28 13:44:00,
2013-03-28 09:49:00,33.4,32.4,30.10,WNW,288,1.0,2.0,96,0.01,,,0.01,meteohub,2013-03-28 13:49:00,
2013-03-28 09:54:00,33.6,32.4,30.10,WNW,288,0.0,3.0,95,0.01,,,0.01,meteohub,2013-03-28 13:54:00,
2013-03-28 09:59:00,34.0,32.4,30.10,WNW,287,0.0,3.0,94,0.01,,,0.01,meteohub,2013-03-28 13:59:00,
2013-03-28 10:04:00,33.6,32.0,30.10,WNW,287,1.0,3.0,94,0.02,,,0.02,meteohub,2013-03-28 14:04:00,
2013-03-28 10:09:00,33.6,32.0,30.10,WNW,286,2.0,3.0,94,0.02,,,0.02,meteohub,2013-03-28 14:09:00,
2013-03-28 10:14:00,33.6,32.4,30.10,WNW,286,0.0,2.0,95,0.02,,,0.02,meteohub,2013-03-28 14:14:00,
2013-03-28 10:19:00,33.8,32.5,30.10,WNW,286,0.0,3.0,95,0.02,,,0.02,meteohub,2013-03-28 14:19:00,
2013-03-28 10:24:00,34.2,32.9,30.10,WNW,286,0.0,3.0,95,0.02,,,0.02,meteohub,2013-03-28 14:24:00,
2013-03-28 10:29:00,34.5,32.9,30.11,NE,49,3.0,3.0,94,0.02,,,0.02,meteohub,2013-03-28 14:29:00,
2013-03-28 10:34:00,34.7,32.9,30.11,NW,323,0.0,5.0,93,0.02,,,0.02,meteohub,2013-03-28 14:34:00,
2013-03-28 10:39:00,35.1,32.9,30.11,ESE,112,2.0,5.0,92,0.02,,,0.02,meteohub,2013-03-28 14:39:00,
2013-03-28 10:44:00,35.2,33.1,30.11,ESE,112,0.0,5.0,92,0.01,,,0.02,meteohub,2013-03-28 14:44:00,
2013-03-28 10:49:00,35.2,33.1,30.11,ESE,112,1.0,3.0,92,0.01,,,0.02,meteohub,2013-03-28 14:49:00,
2013-03-28 10:55:00,35.4,33.1,30.11,East,98,1.0,3.0,91,0.01,,,0.02,meteohub,2013-03-28 14:55:00,
2013-03-28 11:00:00,35.6,33.3,30.11,South,171,1.0,4.0,91,0.01,,,0.02,meteohub,2013-03-28 15:00:00,
2013-03-28 11:05:00,35.2,32.9,30.11,SSW,196,0.0,4.0,91,0.00,,,0.02,meteohub,2013-03-28 15:05:00,
2013-03-28 11:10:00,35.2,32.9,30.11,SSW,194,1.0,4.0,91,0.00,,,0.02,meteohub,2013-03-28 15:10:00,
2013-03-28 11:15:00,35.2,32.9,30.11,West,275,0.0,3.0,91,0.00,,,0.02,meteohub,2013-03-28 15:15:00,
2013-03-28 11:20:00,35.2,32.9,30.12,West,275,0.0,5.0,91,0.00,,,0.02,meteohub,2013-03-28 15:20:00,
2013-03-28 11:25:00,35.6,32.9,30.12,West,275,0.0,5.0,90,0.00,,,0.02,meteohub,2013-03-28 15:25:00,
2013-03-28 11:30:00,35.8,32.5,30.12,West,275,0.0,5.0,88,0.00,,,0.02,meteohub,2013-03-28 15:30:00,
2013-03-28 11:35:00,36.0,32.7,30.12,West,275,3.0,3.0,88,0.00,,,0.02,meteohub,2013-03-28 15:35:00,
2013-03-28 11:40:00,36.0,32.7,30.12,NNW,334,0.0,2.0,88,0.00,,,0.02,meteohub,2013-03-28 15:40:00,
2013-03-28 11:45:00,36.0,32.7,30.12,East,92,1.0,4.0,88,0.00,,,0.02,meteohub,2013-03-28 15:45:00,
2013-03-28 11:50:00,36.3,33.1,30.12,WNW,300,3.0,4.0,88,0.00,,,0.02,meteohub,2013-03-28 15:50:00,
2013-03-28 11:55:00,36.7,33.3,30.12,NNE,17,2.0,4.0,87,0.00,,,0.02,meteohub,2013-03-28 15:55:00,
2013-03-28 12:00:00,36.9,33.1,30.12,West,273,1.0,4.0,86,0.00,,,0.02,meteohub,2013-03-28 16:00:00,
2013-03-28 12:05:00,36.9,33.1,30.12,ENE,73,1.0,5.0,86,0.00,,,0.02,meteohub,2013-03-28 16:05:00,
2013-03-28 12:10:00,37.2,33.1,30.12,East,82,1.0,5.0,85,0.00,,,0.02,meteohub,2013-03-28 16:10:00,
2013-03-28 12:15:00,37.2,33.1,30.12,West,278,0.0,5.0,85,0.00,,,0.02,meteohub,2013-03-28 16:15:00,
2013-03-28 12:20:00,37.8,33.6,30.12,NE,40,0.0,5.0,85,0.00,,,0.02,meteohub,2013-03-28 16:20:00,
2013-03-28 12:25:00,38.1,33.4,30.12,NW,323,0.0,5.0,83,0.00,,,0.02,meteohub,2013-03-28 16:25:00,
2013-03-28 12:30:00,38.3,33.3,30.12,NE,42,0.0,6.0,82,0.00,,,0.02,meteohub,2013-03-28 16:30:00,
2013-03-28 12:35:00,38.3,32.9,30.12,NE,56,0.0,6.0,81,0.00,,,0.02,meteohub,2013-03-28 16:35:00,
2013-03-28 12:40:00,38.3,34.0,30.11,West,263,4.0,5.0,84,0.00,,,0.02,meteohub,2013-03-28 16:40:00,
2013-03-28 12:45:00,38.8,35.1,30.10,West,265,3.0,6.0,86,0.00,,,0.02,meteohub,2013-03-28 16:45:00,
2013-03-28 12:50:00,39.0,34.5,30.10,WSW,241,3.0,7.0,84,0.00,,,0.02,meteohub,2013-03-28 16:50:00,
2013-03-28 12:55:00,39.0,35.2,30.11,ESE,112,0.0,9.0,86,0.00,,,0.02,meteohub,2013-03-28 16:55:00,
2013-03-28 13:00:00,39.6,35.1,30.11,WSW,239,1.0,9.0,84,0.00,,,0.02,meteohub,2013-03-28 17:00:00,
2013-03-28 13:05:00,39.6,34.5,30.11,NNW,346,2.0,9.0,82,0.00,,,0.02,meteohub,2013-03-28 17:05:00,
2013-03-28 13:10:00,39.6,34.5,30.11,NNW,329,3.0,6.0,82,0.00,,,0.02,meteohub,2013-03-28 17:10:00,
2013-03-28 13:15:00,39.9,34.5,30.11,NW,326,0.0,8.0,81,0.00,,,0.02,meteohub,2013-03-28 17:15:00,
2013-03-28 13:20:00,39.9,34.5,30.11,WNW,282,2.0,8.0,81,0.00,,,0.02,meteohub,2013-03-28 17:20:00,
2013-03-28 13:25:00,39.7,34.2,30.11,NW,315,1.0,8.0,80,0.00,,,0.02,meteohub,2013-03-28 17:25:00,
2013-03-28 13:30:00,40.1,34.5,30.11,NNW,327,1.0,7.0,80,0.00,,,0.02,meteohub,2013-03-28 17:30:00,
2013-03-28 13:35:00,40.5,34.5,30.11,West,270,3.0,7.0,79,0.00,,,0.02,meteohub,2013-03-28 17:35:00,
2013-03-28 13:40:00,40.6,34.3,30.11,NW,311,0.0,7.0,78,0.00,,,0.02,meteohub,2013-03-28 17:40:00,
2013-03-28 13:45:00,41.2,33.8,30.11,NNE,32,3.0,7.0,75,0.00,,,0.02,meteohub,2013-03-28 17:45:00,
2013-03-28 13:50:00,41.4,33.4,30.11,East,100,1.0,8.0,73,0.00,,,0.02,meteohub,2013-03-28 17:50:00,
2013-03-28 13:55:00,41.2,33.3,30.10,ENE,71,2.0,8.0,73,0.00,,,0.02,meteohub,2013-03-28 17:55:00,
2013-03-28 14:00:00,40.8,32.9,30.11,ESE,117,0.0,8.0,73,0.00,,,0.02,meteohub,2013-03-28 18:00:00,
2013-03-28 14:05:00,41.5,34.2,30.11,ENE,65,1.0,8.0,75,0.00,,,0.02,meteohub,2013-03-28 18:05:00,
2013-03-28 14:10:00,42.3,34.2,30.10,NW,317,3.0,8.0,73,0.00,,,0.02,meteohub,2013-03-28 18:10:00,
2013-03-28 14:15:00,43.2,34.0,30.11,SW,219,6.0,7.0,70,0.00,,,0.02,meteohub,2013-03-28 18:15:00,
2013-03-28 14:20:00,42.6,33.4,30.11,NE,53,1.0,8.0,70,0.00,,,0.02,meteohub,2013-03-28 18:20:00,
2013-03-28 14:25:00,42.4,33.4,30.11,NE,36,1.0,8.0,70,0.00,,,0.02,meteohub,2013-03-28 18:25:00,
2013-03-28 14:30:00,42.1,33.4,30.11,WNW,299,0.0,8.0,71,0.00,,,0.02,meteohub,2013-03-28 18:30:00,
2013-03-28 14:35:00,42.3,33.6,30.11,East,83,2.0,7.0,71,0.00,,,0.02,meteohub,2013-03-28 18:35:00,
2013-03-28 14:40:00,42.3,33.3,30.10,WNW,300,0.0,7.0,70,0.00,,,0.02,meteohub,2013-03-28 18:40:00,
2013-03-28 14:45:00,42.4,33.1,30.10,SE,139,1.0,5.0,69,0.00,,,0.02,meteohub,2013-03-28 18:45:00,
2013-03-28 14:50:00,42.4,33.1,30.10,NE,48,4.0,6.0,69,0.00,,,0.02,meteohub,2013-03-28 18:50:00,
2013-03-28 14:55:00,42.4,32.7,30.10,WSW,241,1.0,6.0,68,0.00,,,0.02,meteohub,2013-03-28 18:55:00,
2013-03-28 15:01:00,42.4,32.7,30.10,East,82,2.0,6.0,68,0.00,,,0.02,meteohub,2013-03-28 19:01:00,
2013-03-28 15:06:00,42.4,32.7,30.10,NNW,331,0.0,5.0,68,0.00,,,0.02,meteohub,2013-03-28 19:06:00,
2013-03-28 15:11:00,42.4,32.7,30.10,NW,307,0.0,5.0,68,0.00,,,0.02,meteohub,2013-03-28 19:11:00,
2013-03-28 15:16:00,42.3,32.5,30.10,NE,49,0.0,5.0,68,0.00,,,0.02,meteohub,2013-03-28 19:16:00,
2013-03-28 15:21:00,42.1,32.4,30.10,NNW,348,1.0,5.0,68,0.00,,,0.02,meteohub,2013-03-28 19:21:00,
2013-03-28 15:26:00,42.1,33.1,30.10,ESE,123,3.0,7.0,70,0.01,,,0.03,meteohub,2013-03-28 19:26:00,
2013-03-28 15:31:00,42.1,32.4,30.10,North,0,0.0,7.0,68,0.01,,,0.03,meteohub,2013-03-28 19:31:00,
2013-03-28 15:36:00,42.1,32.4,30.10,WNW,288,6.0,6.0,68,0.01,,,0.03,meteohub,2013-03-28 19:36:00,
2013-03-28 15:41:00,42.1,32.7,30.09,NNE,20,0.0,6.0,69,0.01,,,0.03,meteohub,2013-03-28 19:41:00,
2013-03-28 15:46:00,42.1,32.4,30.10,NW,311,0.0,6.0,68,0.01,,,0.03,meteohub,2013-03-28 19:46:00,
2013-03-28 15:51:00,42.3,32.2,30.10,East,89,0.0,6.0,67,0.01,,,0.03,meteohub,2013-03-28 19:51:00,
2013-03-28 15:56:00,42.3,32.5,30.10,NE,56,1.0,5.0,68,0.01,,,0.03,meteohub,2013-03-28 19:56:00,
2013-03-28 16:01:00,42.3,32.2,30.10,NW,308,0.0,8.0,67,0.01,,,0.03,meteohub,2013-03-28 20:01:00,
2013-03-28 16:06:00,42.3,32.2,30.10,WNW,297,1.0,8.0,67,0.01,,,0.03,meteohub,2013-03-28 20:06:00,
2013-03-28 16:12:00,42.3,32.2,30.10,NW,304,0.0,8.0,67,0.01,,,0.03,meteohub,2013-03-28 20:12:00,
2013-03-28 16:17:00,42.3,32.2,30.10,NW,304,0.0,5.0,67,0.01,,,0.03,meteohub,2013-03-28 20:17:00,
2013-03-28 16:22:00,42.4,32.2,30.10,NNW,347,0.0,5.0,67,0.00,,,0.03,meteohub,2013-03-28 20:22:00,
2013-03-28 16:27:00,42.3,32.5,30.10,NNW,327,0.0,6.0,68,0.00,,,0.03,meteohub,2013-03-28 20:27:00,
2013-03-28 16:32:00,42.1,32.4,30.10,WSW,248,0.0,7.0,68,0.00,,,0.03,meteohub,2013-03-28 20:32:00,
2013-03-28 16:37:00,42.1,32.7,30.10,WNW,287,1.0,7.0,69,0.00,,,0.03,meteohub,2013-03-28 20:37:00,
2013-03-28 16:42:00,41.7,32.4,30.10,NW,306,0.0,5.0,69,0.00,,,0.03,meteohub,2013-03-28 20:42:00,
2013-03-28 16:47:00,41.7,32.7,30.10,NE,36,0.0,5.0,70,0.00,,,0.03,meteohub,2013-03-28 20:47:00,
2013-03-28 16:52:00,41.7,33.1,30.10,NE,36,0.0,5.0,71,0.00,,,0.03,meteohub,2013-03-28 20:52:00,
2013-03-28 16:57:00,41.5,32.5,30.11,NNW,342,0.0,3.0,70,0.00,,,0.03,meteohub,2013-03-28 20:57:00,
2013-03-28 17:02:00,41.4,32.4,30.11,NNW,342,0.0,2.0,70,0.00,,,0.03,meteohub,2013-03-28 21:02:00,
2013-03-28 17:07:00,41.2,32.2,30.11,East,80,1.0,2.0,70,0.00,,,0.03,meteohub,2013-03-28 21:07:00,
2013-03-28 17:12:00,41.0,32.0,30.11,East,80,0.0,5.0,70,0.00,,,0.03,meteohub,2013-03-28 21:12:00,
2013-03-28 17:17:00,41.0,32.0,30.11,East,80,0.0,5.0,70,0.00,,,0.03,meteohub,2013-03-28 21:17:00,
2013-03-28 17:22:00,40.8,32.2,30.11,East,80,0.0,2.0,71,0.00,,,0.03,meteohub,2013-03-28 21:22:00,
2013-03-28 17:27:00,40.8,32.5,30.11,East,80,0.0,2.0,72,0.00,,,0.03,meteohub,2013-03-28 21:27:00,
2013-03-28 17:32:00,41.0,33.1,30.11,NE,46,1.0,2.0,73,0.00,,,0.03,meteohub,2013-03-28 21:32:00,
2013-03-28 17:37:00,41.2,33.3,30.11,WNW,298,2.0,5.0,73,0.00,,,0.03,meteohub,2013-03-28 21:37:00,
2013-03-28 17:42:00,41.4,33.4,30.11,WNW,290,0.0,5.0,73,0.00,,,0.03,meteohub,2013-03-28 21:42:00,
2013-03-28 17:47:00,41.4,33.4,30.11,West,271,0.0,5.0,73,0.00,,,0.03,meteohub,2013-03-28 21:47:00,
2013-03-28 17:52:00,41.4,33.6,30.11,WNW,286,1.0,4.0,74,0.00,,,0.03,meteohub,2013-03-28 21:52:00,
2013-03-28 17:58:00,41.2,33.4,30.11,WNW,286,0.0,4.0,74,0.00,,,0.03,meteohub,2013-03-28 21:58:00,
2013-03-28 18:03:00,40.8,33.3,30.12,NW,317,0.0,8.0,74,0.00,,,0.03,meteohub,2013-03-28 22:03:00,
2013-03-28 18:08:00,40.6,33.3,30.11,NW,304,0.0,8.0,75,0.00,,,0.03,meteohub,2013-03-28 22:08:00,
2013-03-28 18:13:00,40.6,33.3,30.12,NW,304,0.0,7.0,75,0.00,,,0.03,meteohub,2013-03-28 22:13:00,
2013-03-28 18:18:00,40.5,33.4,30.12,NW,308,0.0,7.0,76,0.00,,,0.03,meteohub,2013-03-28 22:18:00,
2013-03-28 18:23:00,40.5,33.4,30.12,West,276,0.0,5.0,76,0.00,,,0.03,meteohub,2013-03-28 22:23:00,
2013-03-28 18:28:00,40.3,33.3,30.12,ENE,62,0.0,6.0,76,0.00,,,0.03,meteohub,2013-03-28 22:28:00,
2013-03-28 18:33:00,40.1,33.1,30.12,NE,42,0.0,6.0,76,0.00,,,0.03,meteohub,2013-03-28 22:33:00,
2013-03-28 18:38:00,40.1,33.1,30.12,NE,44,0.0,6.0,76,0.00,,,0.03,meteohub,2013-03-28 22:38:00,
2013-03-28 18:43:00,39.9,32.9,30.13,NNE,32,0.0,3.0,76,0.00,,,0.03,meteohub,2013-03-28 22:43:00,
2013-03-28 18:48:00,39.9,32.9,30.13,NNE,32,0.0,3.0,76,0.00,,,0.03,meteohub,2013-03-28 22:48:00,
2013-03-28 18:53:00,39.7,33.1,30.13,NNE,32,0.0,3.0,77,0.00,,,0.03,meteohub,2013-03-28 22:53:00,
2013-03-28 18:58:00,39.6,32.9,30.13,NNE,32,0.0,3.0,77,0.00,,,0.03,meteohub,2013-03-28 22:58:00,
2013-03-28 19:03:00,39.6,32.9,30.13,NNE,32,0.0,1.0,77,0.00,,,0.03,meteohub,2013-03-28 23:03:00,
2013-03-28 19:08:00,39.2,32.9,30.14,NNE,32,0.0,1.0,78,0.00,,,0.03,meteohub,2013-03-28 23:08:00,
2013-03-28 19:13:00,39.0,32.7,30.14,NNE,32,0.0,2.0,78,0.00,,,0.03,meteohub,2013-03-28 23:13:00,
2013-03-28 19:18:00,38.8,32.9,30.14,NNE,32,0.0,2.0,79,0.00,,,0.03,meteohub,2013-03-28 23:18:00,
2013-03-28 19:23:00,38.5,32.9,30.14,NNE,32,0.0,2.0,80,0.00,,,0.03,meteohub,2013-03-28 23:23:00,
2013-03-28 19:28:00,38.3,32.7,30.14,NNE,32,0.0,0.0,80,0.00,,,0.03,meteohub,2013-03-28 23:28:00,
2013-03-28 19:33:00,37.9,32.7,30.15,NNE,32,0.0,0.0,81,0.00,,,0.03,meteohub,2013-03-28 23:33:00,
2013-03-28 19:38:00,37.6,32.4,30.15,NNE,32,0.0,0.0,81,0.00,,,0.03,meteohub,2013-03-28 23:38:00,
2013-03-28 19:43:00,37.2,32.2,30.15,NNE,32,0.0,0.0,82,0.00,,,0.03,meteohub,2013-03-28 23:43:00,
2013-03-28 19:48:00,37.0,32.0,30.15,NNE,32,0.0,0.0,82,0.00,,,0.03,meteohub,2013-03-28 23:48:00,
2013-03-28 19:53:00,36.9,32.2,30.15,NNE,32,0.0,0.0,83,0.00,,,0.03,meteohub,2013-03-28 23:53:00,
2013-03-28 19:58:00,36.9,32.2,30.15,NNE,32,0.0,0.0,83,0.00,,,0.03,meteohub,2013-03-28 23:58:00,
2013-03-28 20:03:00,36.7,32.0,30.15,NNE,32,0.0,0.0,83,0.00,,,0.03,meteohub,2013-03-29 00:03:00,
2013-03-28 20:08:00,36.3,32.0,30.16,NNE,32,1.0,1.0,84,0.00,,,0.00,meteohub,2013-03-29 00:08:00,
2013-03-28 20:13:00,35.8,31.6,30.16,NNE,32,0.0,1.0,85,0.00,,,0.00,meteohub,2013-03-29 00:13:00,
2013-03-28 20:18:00,35.4,31.6,30.16,NNE,32,0.0,1.0,86,0.00,,,0.00,meteohub,2013-03-29 00:18:00,
2013-03-28 20:24:00,35.2,31.8,30.16,NNE,32,0.0,1.0,87,0.00,,,0.00,meteohub,2013-03-29 00:24:00,
2013-03-28 20:29:00,35.2,31.8,30.16,NNE,32,0.0,1.0,87,0.00,,,0.00,meteohub,2013-03-29 00:29:00,
2013-03-28 20:34:00,35.4,32.0,30.16,NNE,32,0.0,1.0,87,0.00,,,0.00,meteohub,2013-03-29 00:34:00,
2013-03-28 20:39:00,35.2,31.8,30.16,NNE,32,0.0,1.0,87,0.00,,,0.00,meteohub,2013-03-29 00:39:00,
2013-03-28 20:44:00,35.2,32.0,30.16,NNE,32,0.0,1.0,88,0.00,,,0.00,meteohub,2013-03-29 00:44:00,
2013-03-28 20:49:00,35.2,32.0,30.16,NNE,32,0.0,1.0,88,0.00,,,0.00,meteohub,2013-03-29 00:49:00,
2013-03-28 20:54:00,35.4,32.0,30.17,NNE,32,0.0,1.0,87,0.00,,,0.00,meteohub,2013-03-29 00:54:00,
2013-03-28 20:59:00,35.8,32.4,30.17,NNE,32,0.0,1.0,87,0.00,,,0.00,meteohub,2013-03-29 00:59:00,
2013-03-28 21:04:00,35.8,32.4,30.17,NNE,32,0.0,1.0,87,0.00,,,0.00,meteohub,2013-03-29 01:04:00,
2013-03-28 21:09:00,35.6,32.2,30.17,NNE,32,0.0,1.0,87,0.00,,,0.00,meteohub,2013-03-29 01:09:00,
2013-03-28 21:14:00,35.6,32.2,30.17,NNE,32,0.0,0.0,87,0.00,,,0.00,meteohub,2013-03-29 01:14:00,
2013-03-28 21:19:00,35.4,32.0,30.17,NNE,32,0.0,0.0,87,0.00,,,0.00,meteohub,2013-03-29 01:19:00,
2013-03-28 21:24:00,35.2,31.8,30.18,NNE,32,0.0,0.0,87,0.00,,,0.00,meteohub,2013-03-29 01:24:00,
2013-03-28 21:29:00,35.1,31.8,30.18,NNE,32,0.0,1.0,88,0.00,,,0.00,meteohub,2013-03-29 01:29:00,
2013-03-28 21:34:00,35.2,32.0,30.18,NNE,32,0.0,1.0,88,0.00,,,0.00,meteohub,2013-03-29 01:34:00,
2013-03-28 21:39:00,35.8,32.4,30.18,NNE,32,0.0,1.0,87,0.00,,,0.00,meteohub,2013-03-29 01:39:00,
2013-03-28 21:44:00,36.0,32.5,30.18,NNE,32,0.0,1.0,87,0.00,,,0.00,meteohub,2013-03-29 01:44:00,
2013-03-28 21:49:00,36.1,32.7,30.18,NNE,32,0.0,1.0,87,0.00,,,0.00,meteohub,2013-03-29 01:49:00,
2013-03-28 21:54:00,36.1,32.7,30.18,NNE,32,0.0,1.0,87,0.00,,,0.00,meteohub,2013-03-29 01:54:00,
2013-03-28 21:59:00,36.3,32.9,30.18,WNW,284,0.0,1.0,87,0.00,,,0.00,meteohub,2013-03-29 01:59:00,
2013-03-28 22:04:00,36.7,33.3,30.18,WNW,284,0.0,2.0,87,0.00,,,0.00,meteohub,2013-03-29 02:04:00,
2013-03-28 22:09:00,36.9,33.1,30.18,WNW,284,0.0,2.0,86,0.00,,,0.00,meteohub,2013-03-29 02:09:00,
2013-03-28 22:14:00,37.0,33.3,30.18,WNW,284,0.0,2.0,86,0.00,,,0.00,meteohub,2013-03-29 02:14:00,
2013-03-28 22:19:00,37.2,33.1,30.18,WNW,284,0.0,1.0,85,0.00,,,0.00,meteohub,2013-03-29 02:19:00,
2013-03-28 22:24:00,37.2,33.1,30.18,WNW,284,0.0,2.0,85,0.00,,,0.00,meteohub,2013-03-29 02:24:00,
2013-03-28 22:29:00,37.2,33.1,30.18,NW,312,0.0,2.0,85,0.00,,,0.00,meteohub,2013-03-29 02:29:00,
2013-03-28 22:35:00,37.2,33.1,30.18,NW,312,0.0,2.0,85,0.00,,,0.00,meteohub,2013-03-29 02:35:00,
2013-03-28 22:40:00,37.2,33.1,30.18,NW,312,0.0,2.0,85,0.00,,,0.00,meteohub,2013-03-29 02:40:00,
2013-03-28 22:45:00,37.2,33.1,30.18,NW,312,0.0,2.0,85,0.00,,,0.00,meteohub,2013-03-29 02:45:00,
2013-03-28 22:50:00,37.0,32.9,30.18,NW,312,0.0,1.0,85,0.00,,,0.00,meteohub,2013-03-29 02:50:00,
2013-03-28 22:55:00,37.0,32.9,30.18,NW,312,0.0,1.0,85,0.00,,,0.00,meteohub,2013-03-29 02:55:00,
2013-03-28 23:00:00,36.9,32.7,30.18,NW,312,0.0,1.0,85,0.00,,,0.00,meteohub,2013-03-29 03:00:00,
2013-03-28 23:05:00,36.7,32.5,30.18,NW,312,0.0,1.0,85,0.00,,,0.00,meteohub,2013-03-29 03:05:00,
2013-03-28 23:10:00,36.3,32.5,30.18,NW,312,0.0,1.0,86,0.00,,,0.00,meteohub,2013-03-29 03:10:00,
2013-03-28 23:15:00,36.1,32.4,30.18,NW,312,0.0,1.0,86,0.00,,,0.00,meteohub,2013-03-29 03:15:00,
2013-03-28 23:20:00,36.0,32.5,30.18,NW,312,0.0,0.0,87,0.00,,,0.00,meteohub,2013-03-29 03:20:00,
2013-03-28 23:25:00,36.0,32.5,30.18,NW,312,0.0,1.0,87,0.00,,,0.00,meteohub,2013-03-29 03:25:00,
2013-03-28 23:30:00,35.8,32.4,30.18,NW,312,0.0,2.0,87,0.00,,,0.00,meteohub,2013-03-29 03:30:00,
2013-03-28 23:35:00,35.8,32.5,30.18,NW,312,0.0,2.0,88,0.00,,,0.00,meteohub,2013-03-29 03:35:00,
2013-03-28 23:40:00,35.8,32.5,30.18,NW,312,0.0,2.0,88,0.00,,,0.00,meteohub,2013-03-29 03:40:00,
2013-03-28 23:45:00,35.6,32.4,30.18,NW,312,1.0,2.0,88,0.00,,,0.00,meteohub,2013-03-29 03:45:00,
2013-03-28 23:50:00,35.8,32.5,30.18,NW,312,0.0,2.0,88,0.00,,,0.00,meteohub,2013-03-29 03:50:00,
2013-03-28 23:55:00,35.8,32.5,30.18,NW,312,0.0,2.0,88,0.00,,,0.00,meteohub,2013-03-29 03:55:00,